Flag for Canada Weather past 2 weeks in Coquitlam, British Columbia, Canada

Now
45 °F

Quite cool.


Feels Like: 45 °F
Forecast: 37 / 47 °F
Wind: 1 mph from East

Location: P. Meadows Coastal Station

Current Time: Jan 28, 2015 at 9:03:17 AM

Latest Report: Jan 28, 2015 at 8:00 AM


Visibility: N/A

Pressure: 30.38 "Hg

Humidity: 98%

Dew point: 44 °F

Location of CoquitlamLocation

Historic Weather in Coquitlam — Graph

°F

Coquitlam temperature yesterday

Maximum temperature yesterday: 51 °F (at 3:00 PM)
Minimum temperature yesterday: 40 °F (at 12:00 AM)
Average temperature yesterday: 47 °F

Past Weeks' High & Low Weather Summary

 TemperatureHumidityPressure
High61 °F (Jan 26, 3:00 PM)100% (Jan 13, 7:00 AM)30.50 "Hg (Jan 13, 7:00 AM)
Low29 °F (Jan 15, 5:00 AM)56% (Jan 26, 3:00 PM)29.47 "Hg (Jan 18, 1:00 AM)
Average44 °F93%30.16 "Hg
* Reported Jan 13 7:00 AM — Jan 28 7:00 AM, Coquitlam, Weather by CustomWeather, © 2014

Note: Actual official high and low records may vary slightly from our data, if they occured in-between our weather recording intervals... More about our weather records

Advertising

Coquitlam weather history for previous 24 hours

 ConditionsComfort  
Time TempWeatherWind HumidityBarometerVisibility
7:00 AM
Jan 28
45 °FCool.No wind98%30.37 "HgN/A
6:00 AM45 °FCool.2 mph99%30.36 "HgN/A
5:00 AM46 °FCool.1 mph97%30.34 "HgN/A
4:00 AM46 °FCool.2 mph96%30.33 "HgN/A
3:00 AM47 °FCool.1 mph98%30.32 "HgN/A
2:00 AM47 °FCool.3 mph99%30.29 "HgN/A
1:00 AM47 °FCool.3 mph99%30.28 "HgN/A
12:00 AM47 °FCool.1 mph97%30.26 "HgN/A
11:00 PM
Jan 27
48 °FCool.2 mph95%30.24 "HgN/A
10:00 PM48 °FCool.1 mph94%30.22 "HgN/A
9:00 PM48 °FCool.1 mph94%30.19 "HgN/A
8:00 PM48 °FCool.2 mph94%30.16 "HgN/A
7:00 PM49 °FCool.2 mph92%30.15 "HgN/A
6:00 PM50 °FCool.1 mph92%30.13 "HgN/A
5:00 PM50 °FCool.1 mph94%30.11 "HgN/A
4:00 PM49 °FCool.1 mph99%30.10 "HgN/A
3:00 PM51 °FCool.No wind95%30.08 "HgN/A
2:00 PM50 °FCool.2 mph95%30.07 "HgN/A
1:00 PM51 °FCool.1 mph92%30.06 "HgN/A
12:00 PM51 °FCool.No wind92%30.06 "HgN/A
11:00 AM50 °FCool.2 mph91%30.06 "HgN/A
10:00 AM49 °FCool.1 mph93%30.04 "HgN/A
9:00 AM47 °FCool.1 mph96%30.03 "HgN/A
Weather by CustomWeather, © 2014

See weather overviewHow to use our weather pages